| time (UTC) | temp F | wind direction | speed knots | gust knots | rain 1hr in | rain 24hr in | rain mn in | humidity % | barometer mb |
| 20260831113218 | 62 | 192 | 0.0 | 0.0 | 0.00 | 0.00 | 0.00 | 100 | 1019.7 |
| 20260831113114 | 62 | 192 | 0.0 | 0.0 | 0.00 | 0.00 | 0.00 | 100 | 1019.6 |
| 20260831111218 | 62 | 192 | 0.0 | 0.0 | 0.00 | 0.00 | 0.00 | 100 | 1019.4 |
| 20260831105218 | 61 | 193 | 0.0 | 0.0 | 0.00 | 0.00 | 0.00 | 100 | 1019.0 |
| 20260831103114 | 61 | 192 | 0.0 | 0.0 | 0.00 | 0.00 | 0.00 | 100 | 1019.0 |
| 20260831101219 | 62 | 192 | 0.0 | 0.0 | 0.00 | 0.00 | 0.00 | 100 | 1018.7 |
| 20260831095218 | 62 | 192 | 0.0 | 0.0 | 0.00 | 0.00 | 0.00 | 100 | 1018.7 |
| 20260831093218 | 62 | 192 | 0.0 | 0.0 | 0.00 | 0.00 | 0.00 | 100 | 1018.6 |
| 20260831093113 | 62 | 192 | 0.0 | 0.0 | 0.00 | 0.00 | 0.00 | 100 | 1018.5 |
| 20260831091219 | 63 | 192 | 0.0 | 0.0 | 0.00 | 0.00 | 0.00 | 100 | 1018.5 |
| 20260831085219 | 63 | 192 | 0.0 | 0.0 | 0.00 | 0.00 | 0.00 | 100 | 1018.5 |
| 20260831083219 | 63 | 192 | 0.0 | 0.0 | 0.00 | 0.00 | 0.00 | 100 | 1018.4 |
| 20260831083113 | 63 | 192 | 0.0 | 0.0 | 0.00 | 0.00 | 0.00 | 100 | 1018.2 |
| 20260831081220 | 64 | 192 | 0.0 | 0.0 | 0.00 | 0.00 | 0.00 | 100 | 1018.3 |
| 20260831073218 | 64 | 192 | 0.0 | 0.0 | 0.00 | 0.00 | 0.00 | 100 | 1018.0 |
| 20260831073113 | 64 | 192 | 0.0 | 0.0 | 0.00 | 0.00 | 0.00 | 100 | 1017.9 |
| 20260831071218 | 65 | 192 | 0.0 | 0.0 | 0.00 | 0.00 | 0.00 | 100 | 1017.9 |
| 20260831065218 | 65 | 192 | 0.0 | 0.0 | 0.00 | 0.00 | 0.00 | 100 | 1017.9 |
| 20260831063218 | 66 | 192 | 0.0 | 0.0 | 0.00 | 0.00 | 0.00 | 100 | 1017.8 |
| 20260831063113 | 66 | 192 | 0.0 | 0.0 | 0.00 | 0.00 | 0.00 | 100 | 1017.6 |
| 20260831061218 | 66 | 192 | 0.0 | 0.0 | 0.00 | 0.00 | 0.00 | 100 | 1017.7 |
| 20260831055218 | 66 | 192 | 0.0 | 0.0 | 0.00 | 0.00 | 0.00 | 100 | 1017.6 |
| 20260831053113 | 67 | 192 | 0.0 | 0.0 | 0.00 | 0.00 | 0.00 | 100 | 1017.5 |
| 20260831051218 | 67 | 192 | 0.0 | 0.0 | 0.00 | 0.00 | 0.00 | 100 | 1017.5 |
| 20260831045218 | 67 | 192 | 0.0 | 0.0 | 0.00 | 0.00 | 0.00 | 100 | 1017.3 |
| 20260831043113 | 68 | 192 | 0.0 | 0.0 | 0.00 | 0.00 | 0.00 | 100 | 1017.3 |
| 20260831041218 | 68 | 192 | 0.0 | 0.0 | 0.00 | 0.00 | 0.00 | 100 | 1017.3 |
| 20260831035218 | 69 | 192 | 0.0 | 0.0 | 0.00 | 0.00 | 0.00 | 100 | 1017.2 |
| 20260831033220 | 69 | 192 | 0.0 | 0.0 | 0.00 | 0.00 | 0.00 | 100 | 1017.1 |
| 20260831033113 | 69 | 192 | 0.0 | 0.0 | 0.00 | 0.00 | 0.00 | 100 | 1017.1 |
| 20260831031218 | 69 | 192 | 0.0 | 0.0 | 0.00 | 0.00 | 0.00 | 100 | 1017.2 |
| 20260831025218 | 70 | 193 | 0.0 | 0.0 | 0.00 | 0.00 | 0.00 | 100 | 1017.4 |
| 20260831023218 | 71 | 196 | 0.0 | 0.0 | 0.00 | 0.00 | 0.00 | 100 | 1017.2 |
| 20260831023113 | 71 | 196 | 0.0 | 0.0 | 0.00 | 0.00 | 0.00 | 100 | 1017.3 |
| 20260831021218 | 71 | 196 | 0.0 | 0.0 | 0.00 | 0.00 | 0.00 | 100 | 1016.9 |
| 20260831015218 | 71 | 196 | 0.0 | 0.0 | 0.00 | 0.00 | 0.00 | 100 | 1017.0 |
| 20260831013218 | 71 | 196 | 0.0 | 0.0 | 0.00 | 0.00 | 0.00 | 100 | 1017.0 |
| 20260831013113 | 71 | 196 | 0.0 | 0.0 | 0.00 | 0.00 | 0.00 | 100 | 1017.0 |
| 20260831011218 | 71 | 195 | 0.0 | 0.0 | 0.00 | 0.00 | 0.00 | 100 | 1017.0 |
| 20260831005218 | 72 | 208 | 0.0 | 0.0 | 0.00 | 0.00 | 0.00 | 100 | 1017.0 |
| 20260831003218 | 72 | 209 | 0.0 | 0.0 | 0.00 | 0.00 | 0.00 | 100 | 1017.1 |
| 20260831003113 | 72 | 208 | 0.0 | 0.0 | 0.00 | 0.00 | 0.00 | 100 | 1017.1 |
| 20260831001218 | 72 | 208 | 0.0 | 0.0 | 0.00 | 0.00 | 0.00 | 100 | 1016.9 |
| 20260830235218 | 72 | 208 | 0.0 | 6.1 | 0.00 | 0.00 | 0.00 | 100 | 1016.7 |
| 20260830233218 | 73 | 208 | 0.0 | 6.1 | 0.00 | 0.00 | 0.00 | 14 | 1016.7 |
| 20260830233113 | 73 | 208 | 0.0 | 6.1 | 0.00 | 0.00 | 0.00 | 15 | 1016.7 |
| 20260830231218 | 73 | 208 | 0.0 | 6.1 | 0.00 | 0.00 | 0.00 | 29 | 1016.6 |
| 20260830225218 | 74 | 209 | 0.0 | 0.0 | 0.00 | 0.00 | 0.00 | 39 | 1016.7 |
| 20260830223218 | 74 | 209 | 0.0 | 0.0 | 0.00 | 0.00 | 0.00 | 45 | 1016.6 |
| 20260830223113 | 74 | 209 | 0.0 | 0.0 | 0.00 | 0.00 | 0.00 | 45 | 1016.7 |
| 20260830221218 | 74 | 221 | 0.0 | 0.0 | 0.00 | 0.00 | 0.00 | 47 | 1016.9 |
| 20260830215218 | 74 | 220 | 0.0 | 9.6 | 0.00 | 0.00 | 0.00 | 50 | 1016.9 |
| 20260830213218 | 75 | 226 | 0.0 | 9.6 | 0.00 | 0.00 | 0.00 | 52 | 1016.8 |
| 20260830213113 | 75 | 226 | 0.0 | 9.6 | 0.00 | 0.00 | 0.00 | 52 | 1016.8 |
| 20260830211218 | 75 | 220 | 0.0 | 9.6 | 0.00 | 0.00 | 0.00 | 53 | 1016.9 |
| 20260830205218 | 76 | 203 | 0.0 | 8.7 | 0.00 | 0.00 | 0.00 | 54 | 1016.9 |
| 20260830203113 | 77 | 214 | 0.0 | 8.7 | 0.00 | 0.00 | 0.00 | 54 | 1017.0 |
| 20260830201218 | 77 | 220 | 4.3 | 8.7 | 0.00 | 0.00 | 0.00 | 55 | 1016.9 |
| 20260830195218 | 78 | 220 | 0.0 | 7.8 | 0.00 | 0.00 | 0.00 | 54 | 1017.3 |
| 20260830193220 | 79 | 219 | 0.0 | 7.8 | 0.00 | 0.00 | 0.00 | 52 | 1017.4 |
| 20260830193113 | 79 | 229 | 7.8 | 7.8 | 0.00 | 0.00 | 0.00 | 52 | 1017.4 |
| 20260830191218 | 80 | 204 | 0.0 | 7.8 | 0.00 | 0.00 | 0.00 | 50 | 1017.7 |
| 20260830183113 | 81 | 216 | 0.0 | 11.3 | 0.00 | 0.00 | 0.00 | 48 | 1018.2 |
| 20260830181218 | 81 | 209 | 0.0 | 11.3 | 0.00 | 0.00 | 0.00 | 48 | 1018.2 |
| 20260830175219 | 80 | 236 | 0.0 | 13.9 | 0.00 | 0.00 | 0.00 | 47 | 1018.5 |
| 20260830173218 | 81 | 213 | 0.0 | 13.9 | 0.00 | 0.00 | 0.00 | 47 | 1018.6 |
| 20260830173113 | 81 | 220 | 0.0 | 13.9 | 0.00 | 0.00 | 0.00 | 45 | 1018.8 |
| 20260830171219 | 81 | 225 | 0.0 | 13.9 | 0.00 | 0.00 | 0.00 | 47 | 1018.9 |
| 20260830165219 | 81 | 198 | 0.0 | 13.0 | 0.00 | 0.00 | 0.00 | 47 | 1019.1 |
| 20260830163219 | 81 | 206 | 0.0 | 13.0 | 0.00 | 0.00 | 0.00 | 47 | 1019.2 |
| 20260830163113 | 81 | 216 | 0.0 | 13.0 | 0.00 | 0.00 | 0.00 | 47 | 1019.2 |
| 20260830161218 | 79 | 204 | 0.0 | 13.0 | 0.00 | 0.00 | 0.00 | 47 | 1019.3 |
| 20260830155219 | 79 | 203 | 0.0 | 7.0 | 0.00 | 0.00 | 0.00 | 46 | 1019.6 |
| 20260830153218 | 78 | 217 | 1.7 | 7.0 | 0.00 | 0.00 | 0.00 | 44 | 1019.8 |
| 20260830153113 | 78 | 221 | 0.9 | 7.0 | 0.00 | 0.00 | 0.00 | 43 | 1019.8 |
| 20260830151218 | 77 | 190 | 0.0 | 7.0 | 0.00 | 0.00 | 0.00 | 42 | 1019.9 |
| 20260830145218 | 76 | 231 | 0.0 | 0.0 | 0.00 | 0.00 | 0.00 | 37 | 1020.2 |
| 20260830143221 | 74 | 142 | 0.0 | 0.0 | 0.00 | 0.00 | 0.00 | 22 | 1020.5 |
| 20260830143113 | 74 | 142 | 0.0 | 0.0 | 0.00 | 0.00 | 0.00 | 22 | 1020.5 |
| 20260830141218 | 71 | 142 | 0.0 | 0.0 | 0.00 | 0.00 | 0.00 | 11 | 1020.6 |
| 20260830135221 | 69 | 142 | 0.0 | 0.0 | 0.00 | 0.00 | 0.00 | 100 | 1020.9 |
| 20260830133218 | 67 | 142 | 0.0 | 0.0 | 0.00 | 0.00 | 0.00 | 100 | 1021.1 |
| 20260830133113 | 67 | 142 | 0.0 | 0.0 | 0.00 | 0.00 | 0.00 | 100 | 1021.1 |
| 20260830131218 | 65 | 142 | 0.0 | 0.0 | 0.00 | 0.00 | 0.00 | 100 | 1021.1 |
| 20260830130227 | 63 | 141 | 0.0 | 0.0 | 0.00 | 0.00 | 0.00 | 100 | 1021.5 |
| 20260830125217 | 64 | 141 | 0.0 | 0.0 | 0.00 | 0.00 | 0.00 | 100 | 1021.1 |
| 20260830123218 | 63 | 141 | 0.0 | 0.0 | 0.00 | 0.00 | 0.00 | 100 | 1021.5 |
| 20260830123113 | 62 | 141 | 0.0 | 0.0 | 0.00 | 0.00 | 0.00 | 100 | 1021.5 |
| 20260830121218 | 60 | 141 | 0.0 | 0.0 | 0.00 | 0.00 | 0.00 | 100 | 1021.6 |
| 20260830115218 | 58 | 141 | 0.0 | 0.0 | 0.00 | 0.00 | 0.00 | 100 | 1021.5 |